Regional Weather Roundup
Issued by NWS

Home | Current Version | Previous Version | Text Only | Print | Product List | Glossary On
Versions: 1 2 3 4 5 6 7 8 9 10 11 12 13 14 15 16 17 18 19 20 21 22 23 24 25 26 27 28 29 30 31 32 33 34 35 36 37 38 39 40 41 42 43 44 45 46 47 48 49 50
866
ASUS44 KLIX 310305
RWRLA
LOUISIANA WEATHER ROUNDUP
NATIONAL WEATHER SERVICE NEW ORLEANS LA
1000 PM CDT SAT AUG 30 2014

NOTE: "FAIR" INDICATES FEW OR NO CLOUDS BELOW 12,000 FEET WITH NO
      SIGNIFICANT WEATHER AND/OR OBSTRUCTIONS TO VISIBILITY.
      SKY/WX - SKY CONDITION AND SIGNIFICANT WEATHER.
      TMP - AIR TEMPERATURE.    DP   - DEWPOINT TEMPERATURE.
      RH  - RELATIVE HUMIDITY.  PRES - PRESSURE.
      HX  - HEAT INDEX.         WCI  - WIND CHILL INDEX.

*  THESE STATIONS ARE NOT NWS OR FAA STATIONS AND ARE NOT UNDER
   NWS QUALITY CONTROL.

LAZ040-048-061>063-065-066-069-310400-
SOUTHEAST LOUISIANA

CITY           SKY/WX    TMP DP  RH WIND       PRES   REMARKS
N.O. AUDUBON     N/A     76  76  98 MISG        N/A
N.O. INTL ARPT CLOUDY    76  73  91 S3        30.06R
N.O. LAKEFRONT CLOUDY    76  73  91 S6        30.07R
N.O. DOWNTOWN* FAIR      91  70  49 CALM      30.07R HX  97
SLIDELL        CLOUDY    75  73  93 CALM      30.07R
BATON ROUGE    CLOUDY    74  72  93 S7        30.03R
BOOTHVILLE     CLOUDY    83  80  91 SE5       30.07R HX  95
BELLE CHASSE   CLOUDY    76  72  87 CALM      30.05R
BOGALUSA*        N/A     76  72  87 SE5       30.07R
GALLIANO*      NOT AVBL
NEW ROADS*     FAIR      73  73  98 MISG      30.02S
GONZALES*      FAIR      74  74 100 SE5       30.04S
HAMMOND*       CLOUDY    73  72  94 CALM      30.07R
HOUMA*         CLOUDY    74  71  91 CALM      30.06S
PORT FOURCHON* MOCLDY    79  73  83 NW6       30.08R

$$

LAZ041-044-053-054-310400-
SOUTHWEST LOUISIANA

CITY           SKY/WX    TMP DP  RH WIND       PRES   REMARKS
LAKE CHARLES   LGT RAIN  75  74  96 E7        30.00R
LAFAYETTE      CLOUDY    76  73  91 S7        30.01S
PATTERSON        N/A     73  73 100 SE6       30.06F
SALT POINT       N/A     80  75  84 CALM      30.03F
NEW IBERIA     CLOUDY    77  73  87 S9        30.01F
CHENAULT AIRPK CLOUDY    76  73  91 E6        30.01S

$$

LAZ027-028-310400-
CENTRAL LOUISIANA

CITY           SKY/WX    TMP DP  RH WIND       PRES   REMARKS
FORT POLK      MOCLDY    75  73  93 S9        30.00R
ALEXANDRIA INT CLOUDY    75  73  93 S6        29.99R
ALEXANDRIA     CLOUDY    76  73  91 S3        30.01S

$$

LAZ001-002-310400-
NORTHWEST LOUISIANA

CITY           SKY/WX    TMP DP  RH WIND       PRES   REMARKS
SHREVEPORT     CLOUDY    78  73  84 S6        29.96R
BARKSDALE AFB  CLOUDY    79  73  79 S10       29.97R
DTN SHREVEPORT CLOUDY    80  73  79 S10       29.96R

$$

LAZ014-016-310400-
NORTHEAST LOUISIANA

CITY           SKY/WX    TMP DP  RH WIND       PRES   REMARKS
MONROE         MOCLDY    75  73  93 S7        29.99R
TALLULAH       MOCLDY    75  72  90 S9        30.01R

$$




USA.gov is the U.S. government's official web portal to all federal, state and local government web resources and services.